Find Kosmos-1317

NORAD ID: 12933 Int'l Des: 1981-108 Owner: PVO Country: SU operational
MEOELLIPTICALHEO_ELLIPTICALSEMI_SYNC

Live Position

Loading 3D Globe...

About Kosmos-1317

Description loading...

Upcoming Passes

Passes for default location (London). Set your location on the main map for personalized predictions.

Altitude History

Loading altitude history...

Two-Line Element Set

1 12933U 81108A 25310.49239419 .00000119 00000-0 00000+0 0 9998
2 12933 71.5073 119.7468 4749935 327.7124 272.1738 2.00242620321808
Epoch: Nov 6, 2025 • Age: 3945 hours

Current Status

Altitude 16688.8 km
Velocity 4.43 km/s
Sub-Earth Point -38.07°S, 156.2°E
Launch Date Oct 31, 1981
Age 44.4 years
Type other

Technical Details

Classification Payload
Mass 1250.00 kg
Dry Mass 1150.00 kg
Total Mass 1250.00 kg
Length 4.00 m
Diameter 2.00 m
Span 5.00 m
Shape Cyl + 2 Pan
Manufacturer NPOL/KOMET
Bus Type Oko
Phase Status In Orbit
Owner/State PVO/SU

Most Searched